Preview of NWS' New Version of Forecast
This preview is not operational and should not be used for support decisions.
Latest weather observations around

Bakersfield, Meadows Field Airport (KBFL)

Using English Units (Switch to International System of Units)
Date/ Time (PDT) Wind (mph) Vis. (mi) Weather Sky Cond. Temp (°F) Rel. Humidity Wind Chill (°F) Heat Index (°F) Pressure Precip. (in)
Air Dwpt 6 hour Altimeter (inHg) Sea level (inHg) 1 hr 3 hr 6 hr
Max Min
Aug 23 03:54 Calm 10 Clear CLR 77 50     39%   76 29.72 29.7      
Aug 23 02:54 ESE 3 10 Clear CLR 79 51     38%   78 29.71 29.69      
Aug 23 01:54 E 3 10 Clear CLR 81 52     37%   80 29.71 29.68      
Aug 23 00:54 E 5 10 Clear CLR 82 52     35%   81 29.71 29.68      
Aug 22 23:54 E 5 10 Clear CLR 83 51     33%   81 29.71 29.68      
Aug 22 22:54 SSE 5 10 Clear CLR 84 52     33%   82 29.7 29.68      
Aug 22 21:54 NE 6 10 Clear CLR 84 51     32%   82 29.7 29.68      
Aug 22 20:54 NNE 5 10 Clear CLR 86 53     32%   84 29.69 29.67      
Aug 22 19:54 NNW 3 10 Clear CLR 90 54     30%   88 29.68 29.66      
Aug 22 18:54 NNW 8 10 Clear CLR 93 53     26%   91 29.67 29.65      
Aug 22 17:54 NNW 7 10 Clear CLR 95 53     24%   93 29.68 29.66      
Aug 22 16:54 NW 9 10 Clear CLR 95 51     23%   92 29.68 29.66      
Aug 22 15:54 5 10 Clear CLR 95 51     23%   92 29.7 29.67      
Aug 22 14:54   10 Clear CLR 95 54     25%   93 29.72 29.7      
Aug 22 13:54 WNW 8 10 Clear CLR 93 55     28%   91 29.75 29.72      
Aug 22 12:54 NW 9 10 Clear CLR 91 56     31%   89 29.78 29.75      
Aug 22 11:54 3 10 Clear CLR 88 57     35%   87 29.79 29.77      
Aug 22 10:54 WNW 9 10 Clear CLR 87 56     35%   86 29.81 29.78      
Aug 22 09:54 SW 5 10 Clear CLR 84 53     35%   83 29.8 29.78      
Aug 22 08:54 Calm 10 Clear CLR 79 52     39%   78 29.8 29.77      
Aug 22 07:54 SE 5 10 Clear CLR 76 52     43%   75 29.79 29.77      
Aug 22 06:54 SSE 5 10 Clear CLR 71 53     53%   70 29.78 29.76      
Aug 22 05:54 Calm 10 Clear CLR 74 52     46%   73 29.79 29.77      
Aug 22 04:54 E 5 10 Clear CLR 73 53     50%   72 29.78 29.76      
Aug 22 03:54 SSE 3 10 Clear CLR 74 53     48%   73 29.79 29.77      
Aug 22 02:54 SE 3 10 Clear CLR 76 55     48%   75 29.79 29.77      
Aug 22 01:54 Calm 10 Clear CLR 76 53     45%   75 29.8 29.78      
Aug 22 00:54 Calm 10 Clear CLR 80 53     39%   80 29.81 29.78      
Aug 21 23:54 E 3 10 Clear CLR 81 52     37%   80 29.81 29.79      
Aug 21 22:54 NE 6 10 Clear CLR 81 53     38%   80 29.82 29.8      
Aug 21 21:54 Calm 10 Clear CLR 83 50     32%   81 29.83 29.8      
Aug 21 20:54 NNE 5 10 Clear CLR 86 51     30%   84 29.83 29.8      
Aug 21 19:54 N 5 10 Clear CLR 88 51     28%   85 29.82 29.8      
Aug 21 18:54 NNW 7 10 Clear CLR 91 53     28%   89 29.81 29.79      
Aug 21 17:54 WNW 10 10 Clear CLR 93 52     25%   90 29.81 29.79      
Aug 21 16:54 NW 9 10 Clear CLR 94 52     24%   91 29.82 29.8      
Aug 21 15:54 NNW 11 10 Clear CLR 93 52     25%   90 29.84 29.81      
Aug 21 14:54 NW 9 10 Clear CLR 91 51     26%   88 29.86 29.84      
Aug 21 13:54 WNW 11 10 Clear CLR 89 52     28%   87 29.89 29.86      
Aug 21 12:54 WNW 9 10 Clear CLR 86 51     30%   84 29.91 29.88      
Aug 21 11:54 W 8 10 Clear CLR 84 54     36%   83 29.93 29.91      
Aug 21 10:54 3 10 Clear CLR 81 56     42%   81 29.95 29.93      
Aug 21 09:54 3 10 Clear CLR 79 57     47%   79 29.96 29.94      
Aug 21 08:54 5 10 Clear CLR 76 57     52%   76 29.96 29.94      
Aug 21 07:54 Calm 10 Clear CLR 73 58     59%   73 29.96 29.94      
Aug 21 06:54 Calm 10 Clear CLR 70 57     63%     29.95 29.93      
Aug 21 05:54 Calm 10 Clear CLR 69 57     65%     29.93 29.91      
Aug 21 04:54 NW 3 10 Clear CLR 69 58     68%     29.93 29.91      
Aug 21 03:54 Calm 10 Clear CLR 70 59     68%     29.93 29.91      
Aug 21 02:54 NW 9 10 Clear CLR 71 59     66%   71 29.92 29.9      
Aug 21 01:54 NW 10 10 Clear CLR 74 58     57%   74 29.92 29.9      
Aug 21 00:54 NW 3 10 Clear CLR 77 56     48%   77 29.92 29.9      
Aug 20 23:54 N 7 10 Clear CLR 78 55     45%   78 29.91 29.89      
Aug 20 22:54 N 6 10 Clear CLR 83 55     38%   82 29.91 29.88      
Aug 20 21:54 NNE 6 10 Clear CLR 85 56     37%   84 29.9 29.88      
Aug 20 20:54 N 7 10 Clear CLR 85 56     37%   84 29.89 29.87      
Aug 20 19:54 NNW 8 10 Clear CLR 86 55     35%   84 29.88 29.85      
Aug 20 18:54 NNW 9 10 Clear CLR 91 55     30%   89 29.86 29.84      
Aug 20 17:54 WNW 9 10 Clear CLR 93 55     28%   91 29.86 29.84      
Aug 20 16:54 WNW 13 10 Clear CLR 93 56     29%   91 29.86 29.84      
Aug 20 15:54 WNW 10 10 Clear CLR 92 55     29%   90 29.87 29.85      
Aug 20 14:54 WNW 7 10 Clear CLR 91 56     31%   89 29.9 29.87      
Aug 20 13:54 WNW 13 10 Clear CLR 90 56     32%   88 29.92 29.9      
Aug 20 12:54 WNW 7 10 Clear CLR 86 56     36%   85 29.94 29.91      
Aug 20 11:54 3 10 Clear CLR 83 56     40%   82 29.96 29.94      
Aug 20 10:54 5 10 Clear CLR 79 57     47%   79 29.98 29.96      
Aug 20 09:54 5 10 Clear CLR 76 56     50%   76 29.98 29.96      
Aug 20 08:54 SSW 6 10 Clear CLR 74 56     53%   74 29.98 29.96      
Aug 20 07:54 ESE 5 10 Clear CLR 71 54     55%   70 29.97 29.95      
Aug 20 06:54 Calm 10 Clear CLR 67 53     61%     29.96 29.94      
Aug 20 05:54 N 6 10 Clear CLR 68 52     57%     29.93 29.91      
Aug 20 04:54 N 7 10 Clear CLR 67 52     59%     29.92 29.9      
May 13 14:54 WNW 10 10 Clear CLR 80 45     29%   79 29.91 29.89      
May 12 17:54 WNW 17 10 Clear CLR 82 38     21%   80 29.8 29.79      
May 12 12:54 WSW 6 10 Clear CLR 78 41     27%   77 29.87 29.85      
May 12 00:54 E 6 10 Clear CLR 67 43     42%     29.76 29.74      
Jun 11 23:54 N 18 10 Mostly Cloudy BKN080 61 42     50%     29.98 29.97      
Jun 11 09:54 NNW 13 10 Mostly Clear FEW039 64 43     46%     29.93 29.92      
Jun 11 07:54 NNW 15 10 Clear CLR 61 44     54%     29.91 29.9      
Jun 10 21:54 N 6 10 Clear CLR 71 46     41%   70 29.84 29.82      
Jun 10 18:54 NW 10 10 Clear CLR 77 46     33%   76 29.82 29.8      
Jun 10 15:54 W 10 10 Clear CLR 77 47     35%   76 29.85 29.84      
Jun 10 08:54 NW 8 10 Cloudy OVC048 63 43     48%     29.96 29.94      
Jun 08 21:54 NW 14 10 Clear   76 48     37%   75 29.92 29.9      
Jun 08 14:01 W 10 9 Mostly Clear FEW001 87 37     17%   84 29.94        
Jun 08 11:54 W 7 10 Clear CLR 81 46     29%   80 29.97 29.95      
Jun 08 06:54 ENE 5 10 Clear CLR 69 46     44%     29.97 29.95      
Jun 07 08:54 3 10 Clear CLR 78 45     31%   77 29.87 29.85